Flag Weather past 2 weeks in Newcastle upon Tyne, England, United Kingdom

Now
43 °F

Passing clouds.


Feels Like: 43 °F
Forecast: 41 / 51 °F
Wind: 2 mph from East

Location: Newcastle

Current Time: Nov 28, 2014 at 4:40:53 AM

Latest Report: Nov 28, 2014 at 3:20 AM


Visibility: N/A

Pressure: 29.68 "Hg

Humidity: 100%

Dew point: 43 °F

Location of Newcastle upon TyneLocation

Historic Weather in Newcastle upon Tyne — Graph

°F

Newcastle upon Tyne temperature yesterday

Maximum temperature yesterday: 50 °F (at 9:20 PM)
Minimum temperature yesterday: 43 °F (at 12:20 AM)
Average temperature yesterday: 46 °F

Past Weeks' High & Low Weather Summary

 TemperatureHumidityPressure
High55 °F (Nov 22, 12:50 PM)100% (Nov 14, 11:20 AM)30.30 "Hg (Nov 14, 11:20 AM)
Low32 °F (Nov 25, 10:20 PM)72% (Nov 22, 2:20 PM)29.42 "Hg (Nov 14, 6:50 AM)
Average45 °F95%29.87 "Hg
* Reported Nov 13 3:20 AM — Nov 28 3:20 AM, Newcastle upon Tyne, Weather by CustomWeather, © 2014

Note: Actual official high and low records may vary slightly from our data, if they occured in-between our weather recording intervals... More about our weather records

Advertising

Newcastle upon Tyne weather history for previous 24 hours

 ConditionsComfort  
Time TempWeatherWind HumidityBarometerVisibility
3:20 AM
Nov 28
43 °FPassing clouds.2 mph100%29.68 "HgN/A
2:50 AM43 °FPassing clouds.No wind100%29.65 "HgN/A
1:50 AM45 °FPassing clouds.6 mph93%29.65 "HgN/A
1:20 AM45 °FPassing clouds.6 mph100%29.65 "HgN/A
12:50 AM45 °FPassing clouds.3 mph100%29.65 "HgN/A
12:20 AM45 °FPassing clouds.2 mph100%29.65 "HgN/A
11:50 PM
Nov 27
46 °FPartly cloudy.5 mph100%29.62 "Hg4 mi
11:20 PM46 °FPartly cloudy.5 mph100%29.62 "Hg4 mi
10:50 PM46 °FPartly cloudy.7 mph100%29.62 "Hg4 mi
10:20 PM48 °FPassing clouds.5 mph100%29.62 "Hg4 mi
9:50 PM48 °FPassing clouds.5 mph100%29.59 "Hg4 mi
9:20 PM50 °FPassing clouds.5 mph100%29.59 "Hg4 mi
8:50 PM48 °FPassing clouds.3 mph100%29.59 "Hg4 mi
8:20 PM48 °FPassing clouds.5 mph100%29.59 "Hg4 mi
7:50 PM48 °FPassing clouds.3 mph100%29.59 "Hg4 mi
7:20 PM48 °FFog.2 mph100%29.59 "Hg3 mi
6:50 PM48 °FFog.3 mph100%29.56 "Hg2 mi
6:20 PM48 °FFog.3 mph100%29.56 "Hg2 mi
5:20 PM48 °FPartly cloudy.2 mph100%29.56 "Hg5 mi
4:50 PM48 °FPartly cloudy.2 mph100%29.56 "Hg5 mi
4:20 PM48 °FPartly cloudy.3 mph100%29.56 "Hg5 mi
3:50 PM48 °FPartly cloudy.2 mph100%29.56 "Hg5 mi
3:20 PM48 °FBroken clouds.No wind100%29.56 "Hg5 mi
2:50 PM48 °FBroken clouds.No wind100%29.56 "Hg5 mi
2:20 PM48 °FBroken clouds.No wind100%29.56 "Hg4 mi
1:50 PM48 °FBroken clouds.2 mph100%29.56 "Hg4 mi
1:20 PM48 °FBroken clouds.2 mph100%29.56 "Hg4 mi
12:50 PM48 °FFog.2 mph100%29.59 "Hg2 mi
12:20 PM48 °FScattered clouds.3 mph100%29.59 "Hg4 mi
11:20 AM48 °FScattered clouds.5 mph100%29.59 "Hg4 mi
10:50 AM48 °FFog.7 mph100%29.59 "Hg3 mi
9:50 AM46 °FDrizzle. Fog.5 mph100%29.59 "Hg1 mi
9:20 AM46 °FDrizzle. Fog.3 mph100%29.62 "Hg1 mi
8:20 AM45 °FFog.3 mph100%29.62 "Hg1 mi
7:50 AM45 °FFog.2 mph100%29.62 "Hg1 mi
7:20 AM45 °FFog.3 mph100%29.62 "Hg1 mi
6:50 AM43 °FFog.2 mph100%29.62 "Hg1 mi
6:20 AM45 °FFog.2 mph100%29.65 "Hg1 mi
5:50 AM43 °FFog.2 mph100%29.65 "Hg1 mi
4:20 AM43 °FFog.2 mph100%29.65 "Hg1 mi
Weather by CustomWeather, © 2014

See weather overviewHow to use our weather pages